Weather History for Carrollton, GA

Change the Weather History Date:

Sunday, February 3, 2013

  Actual Average Record
Temperature  
Mean Temperature 44 °F -  
Max Temperature 55 °F 54 °F 74 °F (1989)
Min Temperature 32 °F 32 °F 8 °F (1951)
Degree Days  
Heating Degree Days 22    
Moisture  
Dew Point 31 °F    
Average Humidity 69    
Maximum Humidity 100    
Minimum Humidity 33    
Precipitation  
Precipitation 0.00 in - - ()
Sea Level Pressure  
Sea Level Pressure 30.09 in    
Wind  
Wind Speed 4 mph (WNW)    
Max Wind Speed 16 mph    
Max Gust Speed 26 mph    
Visibility 8 miles    
Events Fog    
Averages and records for this station are not official NWS values.
T = Trace of Precipitation, MM = Missing Value Source: NWS Daily Summary

Daily Weather History Graph

Daily Weather History Graph

Search for Another Location

Airport:

Trip Planner

Search our weather history database for the weather conditions in past years. The results will help you decide how hot, cold, wet, or windy it might be!

Date:

Astronomy

Feb. 03, 2013 Rise Set
Actual Time 7:35 AM EST 6:14 PM EST
Civil Twilight 7:09 AM EST 6:40 PM EST
Nautical Twilight 6:39 AM EST 7:09 PM EST
Astronomical Twilight 6:10 AM EST 7:39 PM EST
Moon 1:01 AM EST (2/3) 11:52 AM EST (2/3)
Length of Visible Light 11h 30m
Length of Day
10h 38m
Waning Gibbous, 49% of the Moon is Illuminated
Feb 3
Waning Gibbous
Feb 10
New
Feb 17
First Quarter
Feb 25
Full
Mar 4
Last Quarter

Hourly Weather History & Observations

Time (EST) Temp. Windchill Dew Point Humidity Pressure Visibility Wind Dir Wind Speed Gust Speed Precip Events Conditions
12:15 AM 37.4 °F 34.9 °F 37.4 °F 100% 30.14 in 10.0 mi West 3.5 mph - N/A   Clear
12:35 AM 37.4 °F 34.9 °F 35.6 °F 93% 30.15 in 10.0 mi West 3.5 mph - N/A   Clear
12:55 AM 37.4 °F - 35.6 °F 93% 30.15 in 10.0 mi Calm Calm - N/A   Clear
1:15 AM 35.6 °F - 35.6 °F 100% 30.15 in 10.0 mi Calm Calm - N/A   Clear
1:35 AM 35.6 °F - 35.6 °F 100% 30.15 in 10.0 mi Calm Calm - N/A   Clear
1:55 AM 33.8 °F - 33.8 °F 100% 30.14 in 2.5 mi Calm Calm - N/A   Clear
2:15 AM 33.8 °F - 33.8 °F 100% 30.14 in 1.2 mi Calm Calm - N/A   Mist
2:35 AM 32.0 °F - 32.0 °F 100% 30.13 in 2.0 mi Calm Calm - N/A   Clear
2:55 AM 32.0 °F - 32.0 °F 100% 30.13 in 2.0 mi Calm Calm - N/A   Clear
3:15 AM 32.0 °F - 32.0 °F 100% 30.13 in 3.0 mi Calm Calm - N/A   Clear
3:35 AM 32.0 °F - 32.0 °F 100% 30.13 in 4.0 mi Calm Calm - N/A   Clear
3:55 AM 32.0 °F - 32.0 °F 100% 30.12 in 5.0 mi Calm Calm - N/A   Clear
4:15 AM 33.8 °F - 33.8 °F 100% 30.11 in 5.0 mi Calm Calm - N/A   Clear
4:35 AM 33.8 °F - 33.8 °F 100% 30.11 in 5.0 mi Calm Calm - N/A   Clear
5:15 AM 33.8 °F 30.8 °F 33.8 °F 100% 30.11 in 7.0 mi WSW 3.5 mph - N/A   Clear
5:35 AM 32.0 °F - 32.0 °F 100% 30.11 in 5.0 mi Calm Calm - N/A   Scattered Clouds
5:55 AM 32.0 °F 28.7 °F 32.0 °F 100% 30.11 in 0.5 mi SW 3.5 mph - N/A Fog Fog
6:15 AM 32.0 °F - 32.0 °F 100% 30.11 in 0.2 mi Calm Calm - N/A Fog Fog
6:35 AM 32.0 °F - 32.0 °F 100% 30.12 in 0.2 mi Calm Calm - N/A Fog Fog
7:15 AM 32.0 °F - 32.0 °F 100% 30.11 in 1.5 mi Calm Calm - N/A   Mostly Cloudy
7:35 AM 32.0 °F - 32.0 °F 100% 30.11 in 5.0 mi Calm Calm - N/A   Clear
7:55 AM 33.8 °F - 33.8 °F 100% 30.11 in 7.0 mi Calm Calm - N/A   Clear
8:15 AM 32.0 °F - 32.0 °F 100% 30.11 in 2.5 mi Calm Calm - N/A   Clear
8:55 AM 35.6 °F - 35.6 °F 100% 30.11 in 5.0 mi Calm Calm - N/A   Clear
9:15 AM 37.4 °F 34.9 °F 37.4 °F 100% 30.11 in 10.0 mi WSW 3.5 mph - N/A   Clear
9:35 AM 41.0 °F 38.0 °F 37.4 °F 87% 30.11 in 10.0 mi WSW 4.6 mph - N/A   Clear
9:55 AM 42.8 °F 40.1 °F 37.4 °F 81% 30.10 in 10.0 mi WSW 4.6 mph - N/A   Clear
10:15 AM 44.6 °F 42.2 °F 37.4 °F 76% 30.10 in 10.0 mi SW 4.6 mph - N/A   Clear
10:35 AM 46.4 °F 44.3 °F 37.4 °F 71% 30.10 in 10.0 mi WSW 4.6 mph - N/A   Clear
10:55 AM 50.0 °F - 37.4 °F 62% 30.10 in 10.0 mi WSW 8.1 mph - N/A   Clear
11:15 AM 50.0 °F - 35.6 °F 58% 30.10 in 10.0 mi West 11.5 mph 26.5 mph N/A   Clear
11:35 AM 50.0 °F - 35.6 °F 58% 30.10 in 10.0 mi WNW 13.8 mph 19.6 mph N/A   Clear
11:55 AM 51.8 °F - 35.6 °F 54% 30.09 in 10.0 mi West 9.2 mph 21.9 mph N/A   Clear
12:15 PM 51.8 °F - 33.8 °F 50% 30.08 in 10.0 mi WNW 15.0 mph 24.2 mph N/A   Clear
12:35 PM 53.6 °F - 32.0 °F 44% 30.07 in 10.0 mi WNW 9.2 mph 20.7 mph N/A   Clear
12:55 PM 53.6 °F - 32.0 °F 44% 30.06 in 10.0 mi West 11.5 mph 19.6 mph N/A   Clear
1:15 PM 53.6 °F - 32.0 °F 44% 30.05 in 10.0 mi West 12.7 mph 23.0 mph N/A   Clear
1:35 PM 53.6 °F - 32.0 °F 44% 30.04 in 10.0 mi WNW 12.7 mph 26.5 mph N/A   Clear
1:55 PM 55.4 °F - 28.4 °F 36% 30.03 in 10.0 mi WNW 16.1 mph 24.2 mph N/A   Clear
2:15 PM 55.4 °F - 28.4 °F 36% 30.03 in 10.0 mi WNW 11.5 mph 23.0 mph N/A   Clear
2:35 PM 55.4 °F - 28.4 °F 36% 30.03 in 10.0 mi NW 11.5 mph 23.0 mph N/A   Clear
2:55 PM 55.4 °F - 28.4 °F 36% 30.03 in 10.0 mi West 11.5 mph 19.6 mph N/A   Clear
3:15 PM 55.4 °F - 26.6 °F 33% 30.03 in 10.0 mi NW 11.5 mph 24.2 mph N/A   Clear
3:35 PM 55.4 °F - 28.4 °F 36% 30.03 in 10.0 mi West 16.1 mph 23.0 mph N/A   Clear
3:55 PM 55.4 °F - 28.4 °F 36% 30.04 in 10.0 mi WNW 9.2 mph 17.3 mph N/A   Clear
4:15 PM 55.4 °F - 26.6 °F 33% 30.04 in 10.0 mi West 13.8 mph 20.7 mph N/A   Clear
4:35 PM 55.4 °F - 26.6 °F 33% 30.05 in 10.0 mi WNW 10.4 mph 18.4 mph N/A   Clear
4:55 PM 53.6 °F - 26.6 °F 35% 30.04 in 10.0 mi NW 9.2 mph - N/A   Clear
5:15 PM 53.6 °F - 26.6 °F 35% 30.05 in 10.0 mi NW 10.4 mph - N/A   Clear
5:55 PM 51.8 °F - 26.6 °F 38% 30.06 in 10.0 mi West 5.8 mph - N/A   Clear
6:15 PM 50.0 °F - 26.6 °F 40% 30.06 in 10.0 mi NW 4.6 mph - N/A   Clear
6:35 PM 50.0 °F - 26.6 °F 40% 30.06 in 10.0 mi NW 4.6 mph - N/A   Clear
6:55 PM 48.2 °F - 26.6 °F 43% 30.07 in 10.0 mi NW 5.8 mph - N/A   Clear
7:15 PM 46.4 °F 44.3 °F 26.6 °F 46% 30.07 in 10.0 mi NNW 4.6 mph - N/A   Clear
7:35 PM 46.4 °F - 26.6 °F 46% 30.08 in 10.0 mi Calm Calm - N/A   Clear
7:55 PM 44.6 °F - 28.4 °F 53% 30.09 in 10.0 mi Calm Calm - N/A   Clear
8:15 PM 42.8 °F 41.1 °F 28.4 °F 57% 30.09 in 10.0 mi WNW 3.5 mph - N/A   Clear
8:35 PM 41.0 °F - 28.4 °F 61% 30.10 in 10.0 mi Calm Calm - N/A   Clear
8:55 PM 39.2 °F 35.9 °F 30.2 °F 70% 30.10 in 10.0 mi NNW 4.6 mph - N/A   Clear
9:15 PM 42.8 °F - 28.4 °F 57% 30.10 in 10.0 mi Calm Calm - N/A   Clear
9:35 PM 42.8 °F 40.1 °F 28.4 °F 57% 30.10 in 10.0 mi NW 4.6 mph - N/A   Clear
9:55 PM 42.8 °F 41.1 °F 28.4 °F 57% 30.10 in 10.0 mi WNW 3.5 mph - N/A   Clear
10:15 PM 42.8 °F 40.1 °F 28.4 °F 57% 30.10 in 10.0 mi NW 4.6 mph - N/A   Clear
10:55 PM 41.0 °F 39.0 °F 28.4 °F 61% 30.10 in 10.0 mi NW 3.5 mph - N/A   Clear
11:15 PM 41.0 °F 38.0 °F 28.4 °F 61% 30.11 in 10.0 mi NW 4.6 mph - N/A   Clear
11:35 PM 41.0 °F 37.1 °F 28.4 °F 61% 30.10 in 10.0 mi NW 5.8 mph - N/A   Clear
11:55 PM 41.0 °F 39.0 °F 28.4 °F 61% 30.10 in 10.0 mi NNW 3.5 mph - N/A   Clear